sat.trackr.live / text

‹ back to catalog

STARLINK-34341

NORAD 64161 · 2025-112R

PAYLOAD ACTIVE UNKNOWN

§ Identity

Operator
Country
US
Launch date
2025-05-27
Launch site
AFWTR
Launch vehicle
Mass (kg)
RCS (m²)

Purposes: comms

External: N2YO · Heavens-Above · Gunter

§ Orbital elements

Epoch: 2026-05-25T03:22:03.266112Z

Period
95.64 min
Inclination
97.4532°
Eccentricity
0.0002282
Mean motion
15.05631202 rev/d
Perigee alt
548.0 km
Apogee alt
551.1 km
Semi-major
6,927.7 km
B*
-1.7745e-4
RAAN
196.5443°
Arg perigee
105.2351°
Mean anomaly
254.9128°
Rev number
5,481

§ Raw data

STARLINK-343411 64161U 25112R   26145.14031558 -.00002617  00000+0 -17745-3 0  99982 64161  97.4532 196.5443 0002282 105.2351 254.9128 15.05631202 54817

JSON: /api/v1/satellites/64161 · /tle

For live sub-satellite position, see the globe view (requires WebGL).

§ Visibility from observer

Set your observer location to see the next 7 days of passes ≥ 10°. The values pass through the URL so the page stays shareable.

No JS? Fill the form by hand. The geolocation button needs JavaScript.